Flag for Greece Weather past 2 weeks in Nikaia, Greece

Now
46 °F

Passing clouds.


Feels Like: 46 °F
Forecast: 50 / 66 °F
Wind: No wind

Location: Elefsis Airport


UV Index: 5 (Moderate)

Visibility: N/A


Pressure: 29.65 "Hg

Humidity: 100%

Dew point: 46 °F

Location of NikaiaLocation

Historic Weather in Nikaia

°F

Nikaia temperature yesterday

Maximum temperature yesterday: 64 °F (at 5:20 PM)
Minimum temperature yesterday: 46 °F (at 11:50 PM)
Average temperature yesterday: 56 °F

Past Weeks' High & Low Weather Summary

 TemperatureHumidityPressure
High75 °F (Apr 9, 2:20 PM)100% (Apr 17, 11:50 PM)30.09 "Hg (Apr 17, 11:50 PM)
Low45 °F (Apr 11, 4:20 AM)21% (Apr 11, 12:50 PM)29.65 "Hg (Apr 18, 3:20 AM)
Average59 °F66%29.92 "Hg
* Reported Apr 3 3:50 AM — Apr 18 3:20 AM, Nikaia, Weather by CustomWeather, © 2014

Note: Actual official high and low records may vary slightly from our data, if they occured in-between our weather recording intervals... More about our weather records

Advertising

Historic Weather Conditions — Data for Previous 24 hours

 ConditionsComfort  
Time TempWeatherWind HumidityBarometerVisibility
3:20 AM
Apr 18
48 °FLight rain. Passing clouds.No wind94%29.65 "HgN/A
2:50 AM46 °FLight rain. Passing clouds.No wind100%29.68 "HgN/A
2:20 AM46 °FLight rain. Passing clouds.No wind100%29.68 "HgN/A
1:50 AM46 °FLight rain. Passing clouds.6 mph93%29.68 "Hg5 mi
1:20 AM46 °FLight rain. Passing clouds.No wind100%29.71 "Hg5 mi
12:50 AM46 °FRain. Passing clouds.6 mph100%29.71 "Hg5 mi
12:20 AM46 °FRain. Passing clouds.6 mph93%29.71 "Hg4 mi
11:50 PM
Apr 17
46 °FRain. Passing clouds.5 mph100%29.74 "Hg4 mi
10:50 PM48 °FThunderstorms. Mostly cloudy.6 mph94%29.74 "Hg3 mi
10:20 PM48 °FThunderstorms. Mostly cloudy.5 mph94%29.74 "Hg3 mi
9:50 PM48 °FStrong thunderstorms. Mostly cloudy.12 mph94%29.71 "Hg3 mi
9:20 PM54 °FThunderstorms. Partly cloudy.No wind88%29.71 "Hg5 mi
8:50 PM55 °FThunderstorms. Broken clouds.7 mph77%29.68 "Hg5 mi
7:50 PM57 °FLight rain. Partly sunny.6 mph67%29.68 "HgN/A
7:20 PM57 °FPartly sunny.7 mph63%29.68 "HgN/A
6:50 PM59 °FPartly sunny.8 mph59%29.68 "HgN/A
6:20 PM63 °FBroken clouds.9 mph52%29.68 "HgN/A
5:50 PM64 °FBroken clouds.5 mph46%29.68 "HgN/A
5:20 PM64 °FBroken clouds.5 mph46%29.68 "HgN/A
4:50 PM63 °FBroken clouds.6 mph52%29.68 "HgN/A
4:20 PM61 °FBroken clouds.6 mph55%29.71 "HgN/A
3:50 PM63 °FBroken clouds.7 mph56%29.71 "HgN/A
3:20 PM61 °FPartly sunny.5 mph45%29.71 "HgN/A
2:50 PM63 °FPartly sunny.5 mph45%29.74 "HgN/A
2:20 PM61 °FBroken clouds.No wind45%29.71 "HgN/A
1:50 PM61 °FBroken clouds.No wind45%29.71 "HgN/A
1:20 PM61 °FBroken clouds.5 mph45%29.77 "HgN/A
12:50 PM63 °FBroken clouds.No wind39%29.77 "HgN/A
12:20 PM61 °FBroken clouds.No wind45%29.77 "HgN/A
11:50 AM61 °FBroken clouds.5 mph39%29.77 "HgN/A
11:20 AM63 °FScattered clouds.No wind39%29.77 "HgN/A
10:50 AM57 °FBroken clouds.No wind59%29.77 "HgN/A
10:20 AM59 °FPartly sunny.8 mph45%29.77 "HgN/A
9:50 AM59 °FScattered clouds.9 mph45%29.77 "HgN/A
9:20 AM55 °FPartly sunny.7 mph55%29.77 "HgN/A
8:50 AM55 °FPartly sunny.7 mph55%29.77 "HgN/A
8:20 AM54 °FPartly sunny.7 mph63%29.77 "HgN/A
7:50 AM52 °FPartly sunny.7 mph67%29.77 "HgN/A
7:20 AM52 °FPassing clouds.7 mph72%29.77 "HgN/A
6:50 AM52 °FPassing clouds.6 mph72%29.77 "HgN/A
6:20 AM52 °FPassing clouds.5 mph72%29.77 "HgN/A
5:50 AM52 °FPassing clouds.6 mph77%29.74 "HgN/A
5:20 AM52 °FPassing clouds.5 mph82%29.77 "HgN/A
4:50 AM52 °FPassing clouds.6 mph82%29.77 "HgN/A
4:20 AM52 °FPassing clouds.6 mph88%29.77 "HgN/A
Weather by CustomWeather, © 2014

See weather overview